Houston, TX

1:43 AM CDT on April 27, 2018 (GMT -0500)
Hobby

Weather History for KHOU - January, 2013

Change the Weather History Date:

Sunday, January 27, 2013

  Actual Average Record
Temperature  
Mean Temperature 67 °F 54 °F  
Max Temperature 77 °F 64 °F 83 °F (1975)
Min Temperature 56 °F 44 °F 19 °F (1897)
Degree Days  
Heating Degree Days 0 12  
Month to date heating degree days 293 342  
Since 1 July heating degree days 717 881  
Cooling Degree Days 4    
Growing Degree Days 19 (Base 50)    
Moisture  
Dew Point 63 °F    
Average Humidity 80    
Maximum Humidity 100    
Minimum Humidity 60    
Precipitation  
Precipitation T in 0.11 in 2.86 in (1891)
Month to date precipitation 3.10 2.92  
Year to date precipitation 3.10 2.92  
Sea Level Pressure  
Sea Level Pressure 30.11 in    
Wind  
Wind Speed 8 mph (SSE)    
Max Wind Speed 23 mph    
Max Gust Speed 29 mph    
Visibility 10 miles    
Events Fog , Rain    
T = Trace of Precipitation, MM = Missing Value Source: NWS Daily Summary

Daily Weather History Graph

Daily Weather History Graph

Search for Another Location

Airport or City:

Astronomy

Jan. 27, 2013 Rise Set
Actual Time 7:13 AM CST 5:54 PM CST
Civil Twilight 6:48 AM CST 6:20 PM CST
Nautical Twilight 6:19 AM CST 6:48 PM CST
Astronomical Twilight 5:51 AM CST 7:17 PM CST
Moon 6:42 PM CST 7:13 AM CST
Length of Visible Light 11h 32m
Length of Day
10h 41m
Full, 100% of the Moon is Illuminated
Jan 27
Full
Feb 3
Last Quarter
Feb 10
New
Feb 17
First Quarter
Feb 25
Full

Hourly Weather History & Observations

Time (CST) Temp. Dew Point Humidity Pressure Visibility Wind Dir Wind Speed Gust Speed Precip Events Conditions
12:53 AM 61.0 °F 57.9 °F 90% 30.15 in 10.0 mi ESE 4.6 mph - N/A   Partly Cloudy
1:53 AM 62.1 °F 57.9 °F 86% 30.15 in 10.0 mi ESE 5.8 mph - N/A   Mostly Cloudy
2:53 AM 61.0 °F 59.0 °F 93% 30.14 in 10.0 mi SE 5.8 mph - N/A   Mostly Cloudy
3:53 AM 62.1 °F 59.0 °F 90% 30.12 in 10.0 mi SE 4.6 mph - N/A   Mostly Cloudy
4:53 AM 62.1 °F 59.0 °F 90% 30.11 in 10.0 mi SE 5.8 mph - N/A   Mostly Cloudy
5:53 AM 61.0 °F 59.0 °F 93% 30.12 in 8.0 mi ESE 3.5 mph - N/A   Mostly Cloudy
6:53 AM 61.0 °F 59.0 °F 93% 30.13 in 7.0 mi Calm Calm - N/A Fog Shallow Fog
7:53 AM 62.1 °F 59.0 °F 90% 30.14 in 10.0 mi ESE 4.6 mph - N/A   Mostly Cloudy
8:53 AM 66.0 °F 62.1 °F 87% 30.14 in 10.0 mi SE 8.1 mph - N/A   Mostly Cloudy
9:53 AM 68.0 °F 63.0 °F 84% 30.17 in 10.0 mi SSE 8.1 mph - 0.01 in Rain Light Rain
10:53 AM 71.1 °F 64.9 °F 81% 30.16 in 10.0 mi SSE 10.4 mph - 0.00 in   Mostly Cloudy
11:27 AM 73.4 °F 66.2 °F 78% 30.14 in 10.0 mi SSE 12.7 mph 20.7 mph N/A   Mostly Cloudy
11:53 AM 73.9 °F 64.9 °F 73% 30.14 in 10.0 mi SSE 11.5 mph 21.9 mph N/A   Mostly Cloudy
11:58 AM 75.2 °F 64.4 °F 69% 30.13 in 10.0 mi SSE 13.8 mph 19.6 mph N/A   Mostly Cloudy
12:53 PM 77.0 °F 64.0 °F 64% 30.11 in 10.0 mi South 17.3 mph 24.2 mph N/A   Mostly Cloudy
1:53 PM 75.9 °F 64.9 °F 69% 30.08 in 10.0 mi SSE 17.3 mph 25.3 mph 0.00 in   Mostly Cloudy
2:53 PM 73.9 °F 64.0 °F 71% 30.07 in 10.0 mi South 17.3 mph 26.5 mph 0.00 in   Overcast
3:50 PM 73.4 °F 64.4 °F 73% 30.06 in 10.0 mi SSE 13.8 mph - 0.00 in   Mostly Cloudy
3:53 PM 73.9 °F 64.9 °F 73% 30.07 in 10.0 mi South 13.8 mph 24.2 mph 0.00 in   Overcast
4:53 PM 73.0 °F 64.9 °F 76% 30.07 in 10.0 mi South 15.0 mph 20.7 mph 0.00 in   Overcast
5:53 PM 71.1 °F 64.9 °F 81% 30.07 in 10.0 mi SSE 11.5 mph 20.7 mph N/A   Overcast
6:53 PM 71.1 °F 64.9 °F 81% 30.09 in 10.0 mi SSE 9.2 mph - N/A   Overcast
7:53 PM 70.0 °F 64.9 °F 84% 30.09 in 10.0 mi SSE 11.5 mph - N/A   Overcast
8:53 PM 70.0 °F 64.0 °F 81% 30.10 in 10.0 mi SSE 8.1 mph - N/A   Overcast
9:53 PM 70.0 °F 64.0 °F 81% 30.10 in 10.0 mi SSE 15.0 mph 19.6 mph N/A   Overcast
10:53 PM 70.0 °F 64.0 °F 81% 30.10 in 10.0 mi South 13.8 mph - N/A   Overcast
11:53 PM 69.8 °F 64.4 °F 83% 30.09 in 10.0 mi South 11.5 mph 17.3 mph N/A   Overcast